Mankato, MN

5:47 AM CST on December 16, 2019 (GMT -0600)
Mankato Regional

Weather History for KMKT - September, 2019

Change the Weather History Date:

Sunday, September 15, 2019

  Actual Average Record
Temperature  
Mean Temperature 70 °F -  
Max Temperature 82 °F 70 °F 91 °F (2018)
Min Temperature 59 °F 51 °F 32 °F (2007)
Cooling Degree Days 6    
Growing Degree Days 20 (Base 50)    
Moisture  
Dew Point 64 °F    
Average Humidity 89    
Maximum Humidity 100    
Minimum Humidity 58    
Precipitation  
Precipitation 0.00 in - - ()
Sea Level Pressure  
Sea Level Pressure 29.98 in    
Wind  
Wind Speed 3 mph ()    
Max Wind Speed 8 mph    
Max Gust Speed -    
Visibility 5.8 miles    
Events Fog    
Averages and records for this station are not official NWS values.
T = Trace of Precipitation, MM = Missing Value Source: Averaged Metar Reports

Daily Weather History Graph

Daily Weather History Graph

Search for Another Location

Airport or City:

Astronomy

Sep. 15, 2019 Rise Set
Actual Time 6:54 AM CDT 7:26 PM CDT
Civil Twilight 6:25 AM CDT 7:55 PM CDT
Nautical Twilight 5:50 AM CDT 8:29 PM CDT
Astronomical Twilight 5:15 AM CDT 9:05 PM CDT
Moon 8:32 PM CDT (9/15) 8:06 AM CDT (9/15)
Length of Visible Light 13h 30m
Length of Day
12h 31m
Full, 98% of the Moon is Illuminated
Sep 15
Full
Sep 21
Last Quarter
Sep 28
New
Oct 5
First Quarter
Oct 13
Full

Hourly Weather History & Observations

Time (CDT) Temp. Heat Index Dew Point Humidity Pressure Visibility Wind Dir Wind Speed Gust Speed Precip Events Conditions
12:56 AM 64.0 °F - 63.0 °F 96% 29.95 in 10.0 mi South 4.6 mph - N/A   Clear
1:56 AM 62.1 °F - 62.1 °F 100% 29.94 in 10.0 mi SSE 3.5 mph - N/A   Clear
2:56 AM 62.1 °F - 62.1 °F 100% 29.94 in 10.0 mi SSE 3.5 mph - N/A   Clear
3:56 AM 60.1 °F - 60.1 °F 100% 29.95 in 7.0 mi Calm Calm - N/A   Clear
4:54 AM 60.8 °F - 60.8 °F 100% 29.95 in 1.8 mi Calm Calm - N/A   Clear
4:56 AM 61.0 °F - 61.0 °F 100% 29.95 in 1.5 mi Calm Calm - N/A   Clear
5:22 AM 60.8 °F - 60.8 °F 100% 29.95 in 3.0 mi ENE 3.5 mph - N/A   Clear
5:29 AM 60.8 °F - 60.8 °F 100% 29.95 in 1.5 mi East 3.5 mph - N/A   Clear
5:34 AM 60.8 °F - 60.8 °F 100% 29.95 in 0.8 mi East 3.5 mph - N/A   Clear
6:01 AM 60.8 °F - 60.8 °F 100% 29.94 in 1.2 mi East 4.6 mph - N/A   Clear
6:04 AM 60.8 °F - 60.8 °F 100% 29.94 in 3.0 mi East 4.6 mph - N/A   Clear
6:26 AM 59.0 °F - 59.0 °F 100% 29.95 in 1.5 mi Calm Calm - N/A   Clear
6:38 AM 59.0 °F - 59.0 °F 100% 29.95 in 0.5 mi NE 3.5 mph - N/A Fog Fog
6:56 AM 60.1 °F - 60.1 °F 100% 29.95 in 0.5 mi East 3.5 mph - N/A Fog Fog
6:59 AM 60.8 °F - 60.8 °F 100% 29.95 in 1.0 mi East 3.5 mph - N/A   Clear
7:06 AM 60.8 °F - 60.8 °F 100% 29.96 in 1.5 mi East 3.5 mph - N/A   Clear
7:08 AM 60.8 °F - 60.8 °F 100% 29.96 in 3.0 mi East 3.5 mph - N/A   Clear
7:12 AM 59.0 °F - 59.0 °F 100% 29.96 in 1.8 mi Calm Calm - N/A   Clear
7:35 AM 60.8 °F - 60.8 °F 100% 29.96 in 3.0 mi ESE 3.5 mph - N/A   Clear
7:43 AM 60.8 °F - 60.8 °F 100% 29.97 in 1.8 mi ESE 4.6 mph - N/A   Clear
7:56 AM 61.0 °F - 61.0 °F 100% 29.97 in 8.0 mi ESE 4.6 mph - N/A   Clear
8:56 AM 64.9 °F - 64.9 °F 100% 29.99 in 10.0 mi SE 4.6 mph - N/A   Clear
9:56 AM 69.1 °F - 66.9 °F 93% 30.01 in 10.0 mi Calm Calm - N/A   Clear
10:56 AM 73.9 °F - 68.0 °F 82% 30.01 in 10.0 mi Calm Calm - N/A   Partly Cloudy
11:29 AM 73.4 °F - 68.0 °F 83% 30.01 in 10.0 mi ESE 8.1 mph - N/A   Mostly Cloudy
11:56 AM 75.9 °F - 69.1 °F 79% 30.01 in 10.0 mi SSE 5.8 mph - N/A   Overcast
12:38 PM 77.0 °F - 68.0 °F 74% 30.02 in 10.0 mi SE 5.8 mph - N/A   Scattered Clouds
12:56 PM 75.9 °F - 68.0 °F 76% 30.01 in 6.0 mi South 5.8 mph - N/A   Haze
1:42 PM 78.8 °F - 68.0 °F 69% 30.01 in 2.0 mi ESE 4.6 mph - N/A   Haze
1:56 PM 79.0 °F - 69.1 °F 72% 30.00 in 2.0 mi SE 6.9 mph - N/A   Haze
2:15 PM 78.8 °F - 69.8 °F 74% 30.01 in 1.8 mi SSE 5.8 mph - N/A   Haze
2:56 PM 80.1 °F 82.3 °F 66.9 °F 64% 30.00 in 6.0 mi SSE 4.6 mph - N/A   Haze
3:56 PM 81.0 °F 83.0 °F 66.0 °F 60% 29.99 in 10.0 mi Variable 3.5 mph - N/A   Clear
4:56 PM 82.0 °F 84.1 °F 66.0 °F 58% 29.99 in 10.0 mi South 5.8 mph - N/A   Clear
5:56 PM 80.1 °F 81.9 °F 64.9 °F 60% 29.99 in 10.0 mi SSW 4.6 mph - N/A   Clear
7:56 PM 75.9 °F - 64.9 °F 69% 29.99 in 10.0 mi South 5.8 mph - N/A   Clear
8:56 PM 72.0 °F - 64.9 °F 78% 30.00 in 10.0 mi SSE 5.8 mph - N/A   Clear
9:56 PM 68.0 °F - 64.9 °F 90% 30.01 in 10.0 mi SE 6.9 mph - N/A   Clear
10:56 PM 66.0 °F - 64.0 °F 93% 30.01 in 10.0 mi SE 6.9 mph - N/A   Clear
11:56 PM 66.0 °F - 63.0 °F 90% 30.01 in 10.0 mi SSE 8.1 mph - N/A   Clear